FW1075 Weather Reports


time (UTC)temp
F
wind
direction
speed
knots
gust
knots
rain 1hr
in
rain 24hr
in
rain mn
in
humidity
%
barometer
mb
20260509201142 57 232 2.6 5.2 0.00 0.10 0.10 99 1009.2
20260509200146 58 201 2.6 4.3 0.00 0.10 0.10 99 1009.2
20260509195122 58 254 3.5 6.1 0.02 0.10 0.10 99 1009.2
20260509194143 58 194 2.6 4.3 0.02 0.10 0.10 99 1009.5
20260509193121 57 252 2.6 6.1 0.04 0.10 0.10 99 1009.5
20260509192121 57 236 1.7 3.5 0.04 0.10 0.10 99 1009.4
20260509191142 57 126 1.7 3.5 0.05 0.10 0.10 99 1009.6
20260509190121 57 228 1.7 4.3 0.05 0.10 0.10 99 1009.6
20260509185123 57 211 2.6 4.3 0.04 0.08 0.08 99 1010.0
20260509184143 58 154 1.7 4.3 0.05 0.08 0.08 99 1009.9
20260509183122 58 235 1.7 3.5 0.03 0.06 0.06 99 1009.7
20260509182124 58 178 2.6 7.0 0.04 0.06 0.06 99 1009.2
20260509181143 58 74 0.9 1.7 0.04 0.05 0.05 99 1009.5
20260509180122 58 174 1.7 3.5 0.05 0.05 0.05 99 1009.5
20260509175122 58 205 1.7 3.5 0.04 0.04 0.04 99 1009.5
20260509174144 58 235 1.7 2.6 0.03 0.03 0.03 99 1009.2
20260509173125 58 163 1.7 4.3 0.03 0.03 0.03 99 1009.6
20260509172145 58 222 1.7 4.3 0.02 0.02 0.02 99 1009.2
20260509171121 59 165 1.7 11.3 0.01 0.01 0.01 97 1009.8
20260509170142 60 238 3.5 6.1 0.00 0.00 0.00 95 1009.6
20260509165121 60 221 2.6 5.2 0.00 0.00 0.00 93 1009.6
20260509164122 62 207 2.6 5.2 0.00 0.00 0.00 87 1009.6
20260509163121 63 179 2.6 4.3 0.00 0.00 0.00 83 1009.8
20260509162121 62 169 2.6 4.3 0.00 0.00 0.00 85 1010.0
20260509161125 63 217 1.7 2.6 0.00 0.00 0.00 82 1010.2
20260509160125 63 199 1.7 3.5 0.00 0.00 0.00 81 1010.2
20260509155124 63 165 2.6 4.3 0.00 0.00 0.00 80 1010.4
20260509154121 65 105 1.7 3.5 0.00 0.00 0.00 76 1010.2
20260509153121 64 146 1.7 3.5 0.00 0.00 0.00 77 1010.5
20260509152121 65 143 2.6 3.5 0.00 0.00 0.00 75 1010.4
20260509151121 66 207 2.6 3.5 0.00 0.00 0.00 74 1010.4
20260509150122 65 215 2.6 5.2 0.00 0.00 0.00 74 1010.4
20260509145126 65 240 2.6 5.2 0.00 0.00 0.00 75 1010.4
20260509144125 65 272 2.6 4.3 0.00 0.00 0.00 74 1010.4
20260509143125 64 233 2.6 5.2 0.00 0.00 0.00 75 1010.5
20260509142122 63 239 1.7 3.5 0.00 0.00 0.00 77 1010.6
20260509141123 62 191 1.7 3.5 0.00 0.00 0.00 78 1010.5
20260509140122 61 144 1.7 3.5 0.00 0.00 0.00 79 1010.6
20260509135131 60 143 1.7 4.3 0.00 0.00 0.00 80 1010.6
20260509135122 60 148 1.7 4.3 0.00 0.00 0.00 80 1010.6
20260509134122 60 130 1.7 3.5 0.00 0.00 0.00 80 1010.6
20260509133125 61 132 2.6 6.1 0.00 0.00 0.00 78 1010.5
20260509132121 60 111 0.9 2.6 0.00 0.00 0.00 81 1010.7
20260509131121 59 144 1.7 3.5 0.00 0.00 0.00 84 1011.0
20260509130122 58 199 1.7 3.5 0.00 0.00 0.00 87 1011.0
20260509125121 58 210 0.9 3.5 0.00 0.00 0.00 87 1011.0
20260509124121 58 213 1.7 3.5 0.00 0.00 0.00 88 1011.1
20260509123122 58 176 1.7 2.6 0.00 0.00 0.00 89 1010.9
20260509122121 57 134 0.9 2.6 0.00 0.00 0.00 88 1011.1
20260509121121 57 226 0.9 2.6 0.00 0.00 0.00 88 1011.1
20260509120121 57 214 0.9 3.5 0.00 0.00 0.00 88 1011.2
20260509115121 56 207 1.7 3.5 0.00 0.00 0.00 88 1011.2
20260509114121 56 219 0.9 1.7 0.00 0.00 0.00 89 1011.1
20260509113121 55 177 0.9 2.6 0.00 0.00 0.00 90 1011.1
20260509112121 55 292 0.0 2.6 0.00 0.00 0.00 91 1011.1
20260509111142 54 228 0.9 2.6 0.00 0.00 0.00 93 1010.8
20260509110122 53 203 0.9 1.7 0.00 0.00 0.00 94 1010.9
20260509105121 53 142 0.9 1.7 0.00 0.00 0.00 95 1010.9
20260509104121 53 232 0.0 0.9 0.00 0.00 0.00 96 1010.8
20260509103122 52 221 0.0 1.7 0.00 0.00 0.00 97 1010.6
20260509102122 52 196 0.0 1.7 0.00 0.00 0.00 98 1010.6
20260509101122 52 141 0.0 1.7 0.00 0.00 0.00 99 1010.6
20260509100122 52 143 0.0 0.9 0.00 0.00 0.00 99 1010.6
20260509095122 52 113 0.0 0.9 0.00 0.00 0.00 99 1010.6
20260509094122 52 113 0.0 1.7 0.00 0.00 0.00 99 1010.4
20260509093122 52 207 0.9 2.6 0.00 0.00 0.00 99 1010.4
20260509092146 52 129 0.9 2.6 0.00 0.00 0.00 99 1010.7
20260509091123 52 110 0.9 2.6 0.00 0.00 0.00 99 1010.6
20260509090121 52 103 1.7 2.6 0.00 0.00 0.00 99 1010.7
20260509085121 53 169 0.0 1.7 0.00 0.00 0.00 98 1010.7
20260509084121 53 133 0.9 1.7 0.00 0.00 0.00 99 1010.6
20260509083122 52 135 0.9 2.6 0.00 0.00 0.00 99 1010.7
20260509082121 52 117 0.9 2.6 0.00 0.00 0.00 99 1010.7
20260509081142 52 80 0.9 2.6 0.00 0.00 0.00 98 1010.9
20260509080144 52 103 0.9 1.7 0.00 0.00 0.00 98 1011.0
20260509075144 52 107 0.9 1.7 0.00 0.00 0.00 97 1011.0
20260509074123 52 206 0.9 1.7 0.00 0.00 0.00 97 1011.0
20260509073121 52 175 0.9 2.6 0.00 0.00 0.00 97 1010.9
20260509072123 52 224 0.9 1.7 0.00 0.00 0.00 98 1010.6
20260509071122 52 115 0.9 1.7 0.00 0.00 0.00 98 1010.5
20260509070123 52 108 0.9 2.6 0.00 0.00 0.00 98 1010.6
20260509065143 52 92 0.9 2.6 0.00 0.00 0.00 98 1010.6
20260509064145 52 90 0.9 1.7 0.00 0.00 0.00 98 1010.7
20260509063124 52 89 0.9 2.6 0.00 0.00 0.00 98 1011.0
20260509062122 51 122 0.9 1.7 0.00 0.00 0.00 99 1011.2
20260509061122 51 91 0.9 1.7 0.00 0.00 0.00 99 1011.5
20260509060143 51 88 0.9 2.6 0.00 0.00 0.00 98 1011.5
20260509055122 51 132 0.9 2.6 0.00 0.00 0.00 98 1011.5
20260509054122 51 217 0.0 1.7 0.00 0.00 0.00 97 1011.5
20260509053122 50 218 0.0 1.7 0.00 0.00 0.00 97 1011.5
20260509052122 50 242 0.0 1.7 0.00 0.00 0.00 97 1011.5
20260509051142 50 131 0.0 0.9 0.00 0.00 0.00 98 1011.2
20260509050121 49 113 0.0 0.0 0.00 0.00 0.00 96 1011.1
20260509045142 49 338 0.0 0.0 0.00 0.00 0.00 95 1011.1
20260509044121 49 113 0.0 0.0 0.00 0.00 0.00 93 1011.2
20260509043143 50 23 0.0 0.0 0.00 0.00 0.00 93 1011.2
20260509042121 50 96 0.0 1.7 0.00 0.00 0.00 93 1011.2
20260509041121 51 92 0.0 0.9 0.00 0.00 0.00 91 1011.2
20260509040125 51 97 0.0 1.7 0.00 0.00 0.00 89 1011.2
20260509035125 52 113 0.0 0.0 0.00 0.00 0.00 87 1011.2
20260509034121 52 180 0.0 0.0 0.00 0.00 0.00 86 1011.5
20260509033121 53 23 0.0 0.0 0.00 0.00 0.00 86 1011.4
20260509032121 53 81 0.0 1.7 0.00 0.00 0.00 86 1011.6
20260509031121 53 95 0.0 1.7 0.00 0.00 0.00 86 1011.6
20260509030122 54 208 0.0 1.7 0.00 0.00 0.00 86 1011.7
20260509025126 54 180 0.0 1.7 0.00 0.00 0.00 85 1011.7
20260509024126 54 169 0.0 1.7 0.00 0.00 0.00 85 1011.7
20260509023126 54 176 0.9 2.6 0.00 0.00 0.00 84 1011.6
20260509022122 55 165 0.9 2.6 0.00 0.00 0.00 83 1011.7
20260509021123 55 172 0.9 2.6 0.00 0.00 0.00 82 1011.5
20260509020122 55 295 1.7 2.6 0.00 0.00 0.00 81 1011.4
20260509015122 55 286 1.7 2.6 0.00 0.00 0.00 81 1011.4
20260509014123 55 202 1.7 2.6 0.00 0.00 0.00 81 1011.2
20260509013123 55 255 0.9 2.6 0.00 0.00 0.00 81 1011.1
20260509012123 55 133 0.9 3.5 0.00 0.00 0.00 80 1010.9
20260509011121 55 168 0.9 3.5 0.00 0.00 0.00 80 1010.7
20260509010121 55 196 0.9 2.6 0.00 0.00 0.00 79 1010.4
20260509005121 55 136 1.7 4.3 0.00 0.00 0.00 78 1010.4
20260509004121 56 146 1.7 3.5 0.00 0.00 0.00 77 1010.4
20260509003121 56 149 0.9 2.6 0.00 0.00 0.00 72 1010.2
20260509002121 56 118 0.0 1.7 0.00 0.00 0.00 70 1010.2
20260509001121 56 87 0.0 1.7 0.00 0.00 0.00 69 1010.2
20260509000142 57 90 0.0 1.7 0.00 0.00 0.00 67 1010.1
20260508235121 57 63 0.0 2.6 0.00 0.00 0.00 65 1010.1
20260508234121 58 54 0.9 2.6 0.00 0.00 0.00 64 1009.8
20260508233121 59 83 1.7 3.5 0.00 0.00 0.00 62 1009.7
20260508232121 59 59 2.6 5.2 0.00 0.00 0.00 62 1009.7
20260508231123 60 55 1.7 3.5 0.00 0.00 0.00 60 1009.6
20260508230122 60 280 0.9 2.6 0.00 0.00 0.00 60 1009.5
20260508225122 60 75 1.7 2.6 0.00 0.00 0.00 60 1009.5
20260508224121 60 105 2.6 3.5 0.00 0.00 0.00 60 1009.6
20260508223124 61 352 2.6 3.5 0.00 0.00 0.00 59 1009.7
20260508222143 61 312 2.6 4.3 0.00 0.00 0.00 59 1009.5
20260508221122 62 307 3.5 5.2 0.00 0.00 0.00 57 1009.4
20260508220122 62 351 2.6 5.2 0.00 0.00 0.00 56 1009.6
20260508215123 62 333 2.6 6.1 0.00 0.00 0.00 57 1009.6
20260508214122 61 251 2.6 5.2 0.00 0.00 0.00 58 1009.7
20260508213122 62 333 3.5 5.2 0.00 0.00 0.00 55 1009.7
20260508212123 62 237 2.6 4.3 0.00 0.00 0.00 55 1009.7
20260508211124 63 338 2.6 5.2 0.00 0.00 0.00 54 1009.7
20260508210144 64 308 2.6 4.3 0.00 0.00 0.00 53 1009.7
20260508205122 61 180 2.6 4.3 0.00 0.00 0.00 57 1009.7
20260508204122 61 326 3.5 7.0 0.00 0.00 0.00 55 1009.7
20260508203122 61 329 4.3 7.0 0.00 0.00 0.00 55 1009.6
20260508202142 61 315 3.5 7.0 0.00 0.00 0.00 58 1009.8